Wind_Speed
25 25 25 25 24 24 23 23 23 22 22 22 23 22 21 21 20 15 12 11 11 10 10 9 10 11 9 6 6 13 12 10 12 10 9 9 7 4 2 4 7 8 8 7 5 4 6 5 6 5 3 4 6 5 6 8 8 11 15 18 20 19 20 25 23 20 26 26 23 30 39 40 35 29 24 21 19 15 8 11 16 17 15 16 19 23 22
26 26 26 26 25 25 24 24 23 22 22 22 22 23 22 21 21 17 14 11 10 10 9 9 12 11 7 3 6 13 16 15 15 12 12 11 9 9 8 7 6 5 9 10 6 5 7 8 9 8 6 10 12 10 8 10 9 10 13 16 19 20 21 21 21 22 25 25 21 23 31 36 32 23 20 21 22 19 14 15 20 22 20 17 18 20 19
27 27 27 27 26 25 24 24 23 23 22 21 22 22 22 22 21 18 16 11 8 8 8 9 11 9 6 6 7 9 13 16 14 13 15 14 11 11 11 9 8 8 11 11 9 9 8 8 10 10 11 14 17 13 9 11 11 8 10 15 16 18 21 20 20 21 21 24 24 21 25 32 31 25 22 23 25 25 22 21 21 21 20 20 21 21 20
28 28 28 28 27 26 25 24 24 23 22 22 21 21 22 22 21 20 19 14 8 8 9 10 11 10 7 4 5 7 11 14 14 13 16 17 14 13 14 12 10 10 12 13 14 14 13 13 14 14 14 16 18 16 12 14 15 10 10 13 15 18 20 19 20 20 19 25 29 26 27 32 32 31 29 28 30 30 28 30 29 23 18 22 26 26 24
30 29 29 28 28 27 26 25 24 23 22 22 21 21 22 21 20 22 22 19 14 9 9 10 10 11 7 3 5 4 3 10 13 9 13 17 16 14 15 14 11 11 14 15 15 15 16 19 19 17 17 18 18 17 13 14 16 12 12 14 14 18 21 20 22 21 19 27 33 29 29 33 34 35 33 27 27 29 28 32 32 24 18 22 27 29 27
31 31 30 29 28 28 27 25 24 23 23 22 22 21 21 21 21 21 20 19 18 14 12 10 6 10 13 7 5 5 4 6 10 10 11 14 15 16 16 16 13 14 16 15 16 18 17 17 20 20 19 19 18 15 13 12 13 11 13 15 17 19 21 21 23 23 22 28 34 32 32 35 38 39 34 26 25 28 28 30 32 26 22 23 24 26 28
33 33 32 31 29 28 27 26 24 24 23 23 23 22 21 21 21 21 17 17 19 18 15 11 4 8 16 14 7 7 7 4 6 12 11 10 14 17 17 16 14 15 18 15 15 19 17 15 18 18 17 17 15 12 12 12 13 12 13 16 18 19 21 23 25 25 24 28 34 35 35 38 40 40 36 29 29 32 29 28 31 30 26 26 26 27 31
33 33 32 32 31 30 29 27 26 25 24 24 24 23 22 21 21 21 19 17 19 17 16 15 8 9 16 17 16 17 11 4 6 12 13 15 17 15 14 16 15 15 17 14 14 18 18 15 16 14 11 11 9 7 8 10 13 13 13 15 18 17 19 23 24 24 24 27 33 35 37 42 41 37 36 35 34 35 30 26 29 31 29 29 31 34 35
33 32 31 31 31 31 30 29 28 27 26 26 25 23 23 22 21 21 20 18 18 16 15 18 14 10 11 12 17 20 16 8 12 14 17 19 18 15 15 15 14 14 15 14 14 16 16 14 12 8 6 6 4 4 6 7 10 11 12 14 17 17 17 20 22 22 23 26 30 32 35 41 40 34 36 40 38 35 32 29 29 32 33 29 27 32 36
33 32 31 30 31 31 31 30 30 29 28 28 27 24 24 24 23 22 21 19 18 14 14 17 16 12 10 9 11 13 13 11 14 15 16 17 15 16 16 14 13 15 15 13 12 13 14 12 9 6 5 5 4 3 6 8 8 9 10 11 13 16 18 18 20 20 21 24 28 31 33 36 36 34 36 40 39 36 34 33 31 33 35 31 23 23 31
33 33 32 32 31 30 30 30 30 30 29 29 28 26 25 25 24 23 21 19 17 15 16 19 18 15 12 7 7 10 11 11 14 13 14 16 16 16 16 14 14 14 13 12 11 11 12 11 8 7 6 6 6 5 6 7 7 6 8 10 12 15 16 17 18 18 19 22 25 27 29 31 33 34 36 39 40 39 37 36 36 36 38 40 32 24 26
35 34 34 34 32 31 30 29 29 29 29 29 29 27 26 26 25 24 23 19 17 17 18 19 19 19 17 11 9 11 9 10 15 16 15 17 16 13 14 15 14 12 12 12 11 10 11 10 9 8 7 7 7 7 6 7 8 7 7 10 14 14 13 15 17 16 17 19 21 24 27 29 30 32 34 35 39 42 41 39 41 42 42 44 40 32 30
36 35 35 34 33 32 30 29 28 28 28 28 28 27 27 26 25 24 23 20 19 19 18 18 18 20 21 16 12 12 10 12 18 18 14 14 16 14 16 16 13 11 12 11 11 11 11 10 10 9 8 7 7 7 7 9 10 9 7 10 14 13 12 13 15 15 16 18 20 23 24 26 28 30 30 31 36 44 44 41 43 46 46 46 43 37 35
37 36 35 34 34 33 31 30 28 28 28 27 28 27 27 27 26 25 24 21 20 19 18 17 18 20 23 20 16 14 13 17 22 20 14 13 16 17 17 15 12 12 12 11 11 11 10 10 10 8 7 7 7 7 8 10 11 10 8 10 11 11 12 13 12 13 16 19 20 21 21 23 26 29 29 27 31 40 44 42 43 46 47 47 45 41 37
36 35 35 34 34 33 32 31 29 29 29 28 28 27 27 27 26 26 24 22 21 20 18 19 21 21 22 22 21 18 17 21 25 23 17 15 15 16 16 13 11 13 12 11 11 11 10 10 9 8 7 6 6 7 9 10 11 10 9 10 9 9 11 11 10 10 13 17 19 20 21 21 24 27 29 26 27 33 39 40 39 40 44 48 48 44 39
36 35 35 34 34 34 33 32 31 30 30 30 29 28 28 27 27 26 25 24 22 20 20 22 23 22 22 24 24 19 17 20 24 21 17 16 17 17 15 13 13 13 12 11 11 12 11 10 8 8 7 7 6 7 8 8 9 10 10 9 8 9 9 8 8 9 11 14 16 18 19 20 22 25 26 25 24 25 29 31 29 27 31 39 46 47 41
35 35 35 35 35 35 35 33 32 31 31 31 30 30 29 28 28 27 26 25 23 20 22 24 24 23 25 27 27 23 20 22 23 21 16 14 16 17 16 15 14 14 13 13 12 12 12 12 9 7 7 7 7 7 7 6 7 9 10 9 8 9 9 9 8 9 11 14 16 16 17 18 20 22 23 23 23 21 20 23 24 22 20 25 35 43 43
35 35 36 36 37 37 37 36 34 33 32 31 31 31 30 28 28 28 27 25 22 22 26 26 23 25 29 28 28 26 24 23 22 19 17 16 15 16 16 16 15 16 15 13 12 13 14 13 11 8 6 7 7 7 7 6 7 8 9 9 9 8 8 9 9 10 12 14 15 16 16 14 14 16 19 21 23 22 19 18 20 21 20 19 23 30 35
37 37 38 38 38 39 39 37 36 34 33 32 31 31 30 29 29 28 28 26 23 24 27 26 24 28 31 29 28 28 27 24 20 17 18 19 16 15 15 15 15 15 14 13 13 15 14 13 12 11 8 7 7 6 5 5 7 7 7 8 9 8 8 8 9 11 12 13 13 15 15 14 12 12 13 15 18 20 20 19 18 19 20 20 19 22 25
39 39 39 39 39 39 39 38 36 34 33 32 32 31 30 30 29 29 28 26 23 25 28 28 27 30 28 26 28 29 27 26 22 18 19 19 17 17 17 14 14 15 15 16 16 15 14 13 13 13 11 8 7 6 5 4 5 6 7 9 10 10 9 8 9 11 12 11 11 13 14 13 12 12 11 11 13 15 16 18 18 18 19 21 21 21 23
40 39 39 38 37 37 37 36 35 34 33 32 31 31 30 30 29 28 27 27 24 25 30 30 28 27 26 27 29 27 25 26 24 20 19 17 16 18 18 16 16 17 16 16 16 14 13 14 14 13 11 8 8 8 7 6 5 5 7 8 8 8 9 9 9 11 11 10 10 12 13 13 11 11 11 11 12 13 14 15 17 17 18 19 21 22 23
38 37 36 36 35 34 34 34 33 33 32 31 31 30 30 30 30 28 28 28 26 26 30 32 28 26 27 29 29 27 25 25 22 19 19 17 16 17 18 18 17 16 14 15 15 13 13 15 15 12 10 9 9 9 8 8 7 5 5 6 6 7 8 9 9 10 9 9 9 11 14 15 13 11 11 12 12 12 13 14 15 16 17 17 18 19 21
35 35 34 33 33 32 32 32 31 31 30 30 30 29 29 30 29 28 28 28 27 27 30 31 28 26 28 29 30 28 25 24 22 20 19 19 18 19 20 20 19 16 15 15 14 13 13 15 15 12 11 11 11 10 9 9 7 6 5 5 5 7 8 8 9 10 9 7 8 9 12 14 15 14 14 13 12 12 12 13 14 15 17 18 18 19 20
33 32 32 31 31 30 30 30 30 29 29 29 28 28 29 29 28 28 28 28 28 28 30 30 28 26 27 29 30 30 27 25 24 23 22 21 21 21 21 21 20 18 16 14 13 14 16 16 15 14 13 13 12 10 9 7 6 7 9 7 6 7 7 6 7 9 8 7 7 8 10 12 13 13 12 12 11 11 11 12 12 13 14 16 17 19 19
31 31 30 29 29 29 29 29 29 28 27 28 28 28 28 28 28 28 29 29 28 28 30 30 27 25 28 31 31 31 28 26 26 27 26 23 22 23 23 22 19 17 16 15 15 16 16 16 15 15 14 13 11 10 9 7 7 9 10 9 8 8 8 6 5 5 6 6 6 7 8 10 11 11 11 11 11 11 11 11 11 11 11 12 13 15 16
31 30 29 28 28 28 28 28 28 27 26 26 27 27 28 28 28 28 28 28 27 28 30 30 28 28 30 31 30 32 32 29 28 29 27 24 26 28 27 23 20 18 17 17 17 16 16 16 16 16 15 13 11 10 8 7 8 9 9 8 8 8 8 7 5 5 5 5 6 7 7 7 8 9 10 10 10 10 11 12 12 11 11 12 12 13 14
30 29 28 27 27 27 28 27 27 26 25 25 26 27 27 28 28 27 27 27 28 30 31 31 31 31 30 29 30 34 34 31 30 29 26 25 29 31 27 23 23 22 20 19 19 18 17 16 17 17 16 13 12 11 8 8 9 9 7 7 8 8 8 7 6 6 7 7 8 8 7 7 7 8 8 8 8 9 10 11 11 12 12 13 13 14 14
29 27 26 26 27 27 27 27 27 26 24 24 25 26 27 27 27 26 25 25 27 30 30 29 30 29 28 29 31 33 32 31 29 27 24 24 28 30 28 26 25 24 22 20 19 19 18 17 18 19 15 13 13 13 10 10 13 11 7 5 7 8 8 7 6 6 8 9 8 7 7 7 8 8 8 8 8 8 9 10 10 11 12 13 14 14 14
27 26 25 26 26 26 26 26 26 26 25 24 24 25 26 27 26 25 24 25 27 29 27 27 29 29 28 30 30 29 29 29 27 25 24 24 25 27 28 27 25 23 24 23 21 20 19 18 20 18 14 13 15 14 11 11 13 11 7 7 9 9 9 8 7 8 9 9 9 9 8 7 8 8 8 9 9 10 10 10 10 11 13 14 15 15 15
26 25 25 25 25 25 25 25 25 25 25 24 24 24 26 25 23 24 26 27 28 28 27 28 30 29 28 27 27 27 28 27 24 23 24 24 23 23 25 26 25 25 26 24 22 21 20 20 20 18 15 16 17 15 13 14 13 9 7 8 9 9 10 10 9 9 10 10 10 11 10 8 8 10 10 10 10 11 11 11 11 11 13 14 16 16 17
26 25 25 25 24 24 23 23 23 23 24 24 23 23 24 23 23 25 27 28 27 28 29 31 31 30 27 26 28 30 28 24 22 22 23 23 24 22 22 23 25 26 26 25 23 22 21 21 21 18 16 18 19 17 16 15 12 9 9 9 8 10 12 11 10 10 11 12 12 12 11 9 10 11 11 12 12 12 13 14 15 14 14 15 17 18 19
26 25 25 24 24 23 22 22 21 21 22 23 23 22 22 22 23 24 26 27 28 29 30 29 29 28 28 29 32 33 29 23 21 21 21 22 23 21 20 21 24 26 27 26 24 22 22 22 21 19 17 19 19 18 17 16 12 10 11 10 10 12 13 12 11 11 12 13 13 12 11 11 12 12 12 13 14 15 16 17 19 19 19 18 19 20 21
25 25 25 24 23 22 22 22 21 21 21 21 22 22 22 22 22 22 23 25 28 29 29 28 27 27 29 31 32 31 28 25 22 21 21 21 21 19 20 22 24 25 26 26 24 23 22 23 22 20 19 20 20 19 18 16 13 12 12 12 12 13 14 14 14 14 14 14 13 12 12 13 14 13 12 14 17 18 18 19 20 22 23 22 22 22 23
26 25 24 23 22 22 23 23 22 21 20 20 20 21 21 22 23 24 24 25 26 27 27 27 27 28 30 31 31 30 28 26 23 21 21 20 19 19 21 23 24 25 25 26 26 25 24 24 23 22 21 22 21 19 18 16 14 13 13 13 13 15 15 15 15 15 15 15 15 14 14 15 15 15 15 16 18 20 21 21 22 24 25 26 25 25 25
26 25 23 22 22 22 22 22 21 19 18 17 17 18 20 21 23 24 25 26 26 25 24 24 25 29 31 32 31 29 27 24 22 21 21 20 19 19 21 22 23 24 25 26 27 26 25 24 23 22 22 22 21 19 17 16 15 15 14 14 14 15 15 15 15 16 16 16 16 17 16 16 16 17 18 19 20 21 23 24 25 26 27 28 28 28 27
25 24 22 21 21 20 20 20 19 18 17 17 18 19 20 21 23 24 25 26 25 25 24 24 26 29 32 32 32 30 27 24 23 22 21 20 19 20 21 21 21 23 24 25 26 25 24 24 23 23 23 22 20 19 18 17 16 16 15 14 15 15 15 15 16 16 17 17 17 18 18 18 18 19 20 21 21 23 24 25 26 28 28 29 29 30 30
24 23 22 21 20 19 18 18 18 18 18 19 21 22 23 23 24 24 25 25 25 25 25 25 26 30 32 32 31 30 27 24 23 22 21 20 20 20 20 20 21 22 23 24 25 25 25 25 24 23 24 23 21 20 19 18 17 16 16 16 16 15 15 15 16 16 17 17 18 19 20 19 20 20 21 22 22 23 25 26 27 28 29 30 30 30 31
23 22 21 21 20 19 19 19 19 20 21 23 24 25 25 25 25 24 25 25 25 25 25 27 29 31 32 32 30 29 26 23 22 22 22 21 21 20 19 19 20 21 22 23 24 25 25 25 24 24 24 23 21 20 20 19 17 17 16 16 16 15 16 16 16 17 17 18 19 20 21 21 21 21 22 23 23 24 25 26 27 28 29 30 31 31 32
23 22 21 21 21 21 21 21 22 23 23 24 25 26 26 25 24 23 24 23 23 24 26 27 29 31 31 31 29 27 25 23 22 23 23 21 20 20 20 20 20 20 21 22 23 23 24 25 25 24 23 22 20 20 20 19 18 18 17 16 15 16 16 16 16 17 18 18 20 21 21 21 22 22 23 23 23 25 26 26 27 28 29 30 31 32 33
22 22 21 21 22 22 22 23 24 24 23 23 23 22 22 21 20 20 21 21 21 22 23 25 28 29 30 31 30 27 24 23 21 22 22 21 21 21 21 21 20 20 20 21 22 22 23 24 24 22 21 20 20 21 20 19 18 18 17 16 16 16 16 16 17 17 18 19 20 21 22 23 23 23 23 23 24 25 26 27 28 29 30 31 32 33 34
22 22 22 22 22 22 22 22 23 22 21 20 19 17 16 17 18 19 19 18 17 18 21 25 28 28 28 29 29 27 24 22 21 21 21 21 22 22 21 20 20 21 20 20 21 21 22 23 22 20 19 19 19 20 19 18 17 17 17 16 16 16 16 17 17 18 18 19 20 21 23 24 24 24 24 25 26 27 27 28 29 31 32 33 33 34 35
21 20 20 20 20 20 21 20 20 19 17 15 13 12 12 14 16 18 18 16 15 17 21 24 25 25 26 27 27 26 24 24 23 21 20 20 21 21 20 20 20 20 19 19 20 21 22 22 20 18 17 18 18 18 18 17 17 17 17 16 17 17 17 18 18 18 19 20 22 23 23 24 24 25 26 27 28 29 29 30 31 32 33 34 35 36 37
18 17 17 18 18 19 18 16 15 15 13 11 9 9 10 13 15 15 15 15 15 16 19 21 23 24 24 25 25 25 24 23 23 21 20 20 20 20 20 20 20 19 18 18 19 20 20 20 18 16 17 17 16 16 17 17 16 16 16 17 17 18 18 19 19 19 20 21 23 24 24 24 25 26 28 29 30 31 31 32 32 33 34 35 36 37 38
16 16 16 16 16 15 13 11 12 12 10 8 7 7 11 14 13 13 14 15 15 16 18 19 21 22 22 22 23 23 22 21 21 21 21 21 20 19 19 19 20 19 19 19 18 18 19 18 16 15 16 16 16 16 16 16 15 16 17 17 18 18 18 19 20 20 21 22 23 24 25 26 27 28 29 30 31 32 33 33 34 34 35 36 37 37 38
14 14 14 14 13 11 10 9 10 10 9 8 8 10 13 13 12 13 15 15 15 16 17 18 19 20 21 22 22 21 20 21 21 21 20 20 19 18 17 17 19 19 19 19 18 18 18 17 16 15 15 16 16 15 15 15 16 17 18 18 18 18 19 20 21 21 22 23 24 25 26 27 28 29 30 31 32 33 33 34 35 35 36 37 37 38 38
11 10 10 10 9 9 8 9 9 9 9 10 11 12 14 14 13 14 15 15 16 17 17 17 18 19 20 21 20 19 19 21 22 21 20 19 17 16 17 17 17 17 17 17 16 16 16 15 15 15 15 15 15 14 14 15 16 17 17 18 18 18 19 20 21 22 22 23 24 26 27 28 29 30 30 31 32 33 34 35 36 36 36 36 37 37 38
7 7 7 8 8 8 9 9 9 9 9 10 11 12 13 14 15 15 15 15 17 17 17 16 16 17 17 18 18 18 19 21 21 21 21 19 17 16 17 17 16 15 15 15 15 16 16 14 14 14 15 15 14 13 14 15 16 17 17 17 17 18 19 19 20 21 22 23 25 26 27 28 29 30 31 32 33 33 34 36 36 36 35 35 36 36 37
6 7 7 8 9 9 8 8 9 9 9 8 10 12 13 15 15 16 16 16 17 17 16 16 15 15 15 16 17 18 19 21 21 21 20 19 17 16 16 15 15 14 14 14 15 15 14 13 13 14 14 13 13 13 14 15 16 17 17 17 18 19 20 20 21 21 23 24 25 26 27 28 29 30 31 32 33 34 35 35 35 34 34 35 35 36 37
8 9 8 8 9 8 7 7 9 10 10 10 11 14 15 16 16 16 15 16 15 15 15 16 16 16 15 14 15 18 19 20 20 20 19 17 17 16 16 15 15 15 16 16 16 14 12 12 14 14 14 14 14 15 15 16 16 16 17 17 18 20 21 21 22 22 23 25 26 27 28 29 30 30 31 32 33 34 34 34 34 34 34 34 35 36 37
10 10 9 9 9 9 8 8 10 11 12 12 13 15 16 16 16 15 15 15 14 14 15 16 17 17 15 14 14 17 19 18 18 17 17 16 15 15 15 15 16 16 16 15 14 14 14 14 14 14 14 14 15 15 15 15 15 16 16 18 19 21 22 23 23 24 25 26 26 27 28 29 30 30 31 33 33 33 33 33 33 33 34 34 35 36 37
11 11 11 11 11 10 10 10 11 12 12 14 15 17 17 15 14 14 15 15 14 13 14 15 16 17 16 14 13 15 18 17 16 15 15 15 14 14 14 15 17 17 15 14 13 14 15 15 14 14 14 14 14 14 14 14 15 16 18 20 22 23 24 24 25 26 26 27 27 28 29 29 30 31 32 33 33 33 33 33 33 33 34 34 35 36 37
12 12 12 13 13 12 12 12 12 12 13 14 15 15 15 15 14 14 14 14 13 13 13 15 16 17 17 15 14 15 17 17 15 14 14 14 14 14 15 17 18 17 16 15 14 14 15 15 15 15 15 14 14 14 14 16 17 19 20 21 23 24 25 25 26 27 27 28 28 29 29 30 30 31 32 32 32 32 33 33 33 33 33 34 35 36 36
Wind_Direction
308 310 312 314 316 317 319 319 320 321 322 323 322 323 325 324 330 339 331 316 310 309 306 298 293 296 311 353 325 295 288 261 249 254 262 266 272 271 260 281 300 317 312 306 322 301 275 269 247 226 214 252 265 258 249 255 239 218 220 218 211 213 211 204 204 198 184 185 187 182 185 186 181 179 179 173 172 172 191 231 219 208 211 219 237 252 255
306 307 309 310 312 314 315 316 316 317 319 321 320 320 322 321 326 332 330 320 302 298 303 291 290 304 320 308 279 288 292 269 244 249 263 263 277 286 278 284 295 304 311 314 310 298 305 293 262 252 238 237 252 261 250 248 248 233 228 222 215 220 222 214 213 209 195 188 181 174 182 187 181 182 198 196 181 170 182 220 220 204 199 212 229 243 252
304 305 305 306 308 310 311 312 312 313 316 317 317 318 318 319 323 323 320 316 298 291 294 285 290 298 276 259 264 260 266 262 244 245 257 254 258 271 274 286 291 281 295 304 293 296 303 281 272 271 252 249 262 266 250 244 244 232 228 226 221 223 226 222 218 214 201 190 182 172 175 177 170 174 198 204 197 193 190 196 204 202 206 220 224 229 241
302 302 303 304 305 306 308 308 308 310 312 313 315 315 315 318 319 314 315 325 319 293 289 288 286 281 263 266 280 232 233 262 264 251 254 252 247 257 268 279 289 284 285 288 289 296 291 280 289 291 276 272 278 280 278 265 252 231 217 222 223 225 227 225 221 220 210 192 184 176 173 174 173 180 190 197 205 206 191 186 196 202 217 232 227 227 239
301 301 301 302 302 303 304 304 304 306 307 309 311 312 313 315 312 310 319 328 321 294 284 284 277 281 283 256 274 287 276 293 295 271 254 254 247 248 258 264 271 279 282 285 288 289 286 289 298 299 290 285 279 276 277 270 263 250 228 222 222 227 229 224 217 218 213 197 188 178 174 179 182 184 188 193 204 207 197 193 197 197 210 228 228 230 238
299 299 300 300 300 300 300 300 301 301 303 305 306 308 310 310 306 309 318 317 309 301 293 287 280 295 298 279 268 293 270 277 301 293 272 266 255 246 252 260 265 272 280 292 296 290 287 292 298 297 291 285 275 263 254 259 271 264 245 234 225 224 228 225 218 216 213 203 193 182 180 185 182 179 187 195 196 202 208 207 201 196 202 213 220 227 230
297 297 297 297 297 296 296 296 296 296 298 300 302 304 307 307 306 307 310 302 299 302 295 286 268 254 264 262 253 255 236 221 286 289 282 275 265 252 249 259 267 273 283 295 296 291 295 303 302 296 284 278 274 256 241 256 274 272 260 251 239 230 229 228 223 219 215 209 199 188 184 185 180 180 191 196 190 194 205 210 206 201 201 207 215 221 221
295 295 295 294 294 293 292 292 292 293 294 294 298 301 302 305 303 300 301 295 293 296 293 293 287 233 242 253 252 258 270 251 244 264 264 260 266 262 248 254 266 275 284 292 288 289 303 315 311 302 282 272 270 247 235 252 266 266 262 257 252 246 239 235 230 222 218 215 208 198 190 187 186 188 192 192 192 196 197 201 203 200 203 214 222 224 221
293 293 294 293 293 292 290 288 287 288 290 290 293 296 297 298 297 295 296 293 291 292 290 291 286 259 261 266 252 262 283 257 219 245 262 259 260 260 254 258 270 276 280 286 286 290 304 315 317 314 290 266 252 232 236 247 255 257 257 255 253 250 247 243 235 227 221 218 216 214 204 196 195 194 189 188 193 195 194 197 200 199 206 218 225 225 224
291 292 293 294 293 293 290 288 285 284 286 287 288 291 291 291 292 293 292 290 290 286 273 273 273 268 279 275 250 267 287 263 237 248 267 271 260 250 252 256 263 271 280 285 286 290 300 308 313 309 288 274 267 249 244 248 253 256 256 255 251 246 244 242 235 229 224 219 220 222 217 208 203 197 190 190 193 194 196 199 200 202 208 214 221 228 227
291 290 292 293 293 293 291 289 286 283 283 284 285 285 284 285 288 289 289 287 284 276 261 258 258 253 253 248 250 273 281 269 265 262 260 267 260 245 248 253 254 265 280 285 282 287 296 301 298 287 278 276 275 266 257 263 268 264 255 253 248 243 241 241 237 231 226 223 224 226 224 220 214 202 194 194 195 197 200 201 200 205 211 213 219 234 235
291 291 292 293 293 292 291 289 288 285 282 281 282 281 280 281 283 284 286 283 275 270 261 255 256 257 251 233 230 259 264 258 269 274 265 260 258 246 244 248 250 262 276 279 277 281 291 297 291 282 276 273 274 274 274 278 283 281 262 252 250 247 244 243 240 234 228 223 224 227 227 226 222 212 207 207 205 202 203 203 202 206 212 215 220 236 241
292 292 292 292 292 292 290 288 287 286 284 281 280 279 277 277 277 278 281 279 272 269 263 257 264 268 261 245 229 245 259 250 260 279 282 255 245 243 244 247 250 259 269 273 271 275 288 295 289 282 280 279 279 277 270 271 282 290 278 259 256 254 251 247 241 235 229 223 223 227 228 227 226 223 221 221 215 208 206 206 205 208 213 217 224 239 243
292 292 292 291 291 290 288 287 285 284 284 282 279 278 275 274 273 273 276 274 269 268 262 252 252 255 256 254 242 233 236 242 256 276 279 245 232 236 242 248 252 255 262 268 267 269 282 292 288 282 281 279 273 269 265 266 275 284 280 270 264 256 249 246 240 234 229 225 227 231 229 226 225 225 225 224 217 211 211 212 212 214 217 220 227 240 242
290 291 291 290 290 289 287 286 284 282 282 280 279 277 274 271 270 269 271 270 265 263 258 246 243 245 247 252 250 240 234 245 260 273 266 240 232 239 243 244 246 250 256 260 262 265 272 285 291 283 273 270 266 262 260 261 266 271 270 268 261 247 244 242 235 230 229 228 231 234 234 231 227 225 227 226 219 213 214 217 218 221 224 226 231 238 241
288 288 289 288 288 287 286 284 283 281 279 278 277 275 273 270 268 266 266 266 263 261 254 247 246 246 242 244 248 247 240 245 260 272 264 238 231 238 241 238 239 246 251 253 257 261 262 270 282 277 262 258 260 262 260 257 261 265 269 270 259 243 240 238 228 221 221 226 233 236 237 237 234 231 232 234 231 224 221 223 224 225 228 230 231 232 234
287 287 287 287 286 286 285 284 282 280 278 276 274 273 271 268 266 263 262 262 262 256 248 246 246 243 240 241 244 245 243 246 258 271 269 246 236 240 240 236 237 241 245 247 250 255 257 259 267 274 270 259 251 251 257 261 263 266 272 275 265 247 235 229 228 222 217 220 228 235 238 239 241 243 244 244 243 243 240 236 233 233 232 229 226 224 225
286 286 286 286 285 284 283 282 281 279 277 275 273 271 269 266 263 261 259 259 257 250 246 248 245 240 240 242 246 250 252 253 260 267 258 240 234 238 238 234 233 236 240 243 246 250 253 253 254 260 267 269 259 245 243 250 254 263 274 274 266 254 237 227 224 222 220 220 223 231 238 241 245 250 251 248 245 248 253 247 238 234 232 229 223 220 222
286 286 285 285 284 283 282 281 280 278 276 274 272 270 267 265 262 259 257 256 254 249 248 248 242 239 242 243 249 257 261 262 267 268 251 236 229 235 239 235 232 234 238 242 244 246 247 249 252 252 253 265 269 252 236 246 251 258 270 268 263 260 249 237 230 229 229 226 222 225 232 240 243 242 243 244 243 245 249 247 240 234 231 230 227 224 225
286 286 285 284 283 282 281 280 279 277 274 272 270 268 267 264 261 259 256 256 253 248 247 246 243 243 245 244 247 256 263 263 264 261 247 234 227 232 241 241 234 231 232 235 238 240 243 247 252 252 248 253 265 261 247 244 249 253 256 254 256 262 262 257 251 247 243 238 230 226 229 238 245 243 243 249 247 242 240 239 237 235 233 235 235 233 232
286 285 285 284 283 282 281 279 278 276 273 271 269 267 266 264 261 258 255 252 250 245 245 248 249 248 246 243 242 248 255 257 261 265 261 248 232 229 235 238 238 237 236 238 239 239 240 244 248 252 251 249 258 263 256 245 239 247 259 261 260 262 263 264 260 254 249 245 240 236 236 242 248 249 251 257 256 250 242 235 233 233 234 238 242 241 240
285 285 284 284 283 282 280 279 277 275 272 270 268 265 264 261 259 257 253 251 250 244 244 249 251 246 244 243 241 242 247 255 264 272 268 256 239 233 236 239 242 243 242 241 239 238 238 241 248 255 252 244 248 252 253 256 254 250 265 278 273 260 253 251 248 245 243 245 243 239 240 242 245 250 257 262 265 263 256 245 239 236 236 238 242 245 246
284 284 284 284 283 282 280 279 277 275 272 269 266 263 261 260 258 256 252 251 248 244 244 250 250 244 242 244 242 240 243 250 256 256 251 244 239 236 236 237 239 240 239 238 237 236 237 240 247 249 240 238 244 246 246 256 261 256 256 262 261 261 255 244 238 237 238 243 243 239 240 241 242 247 255 261 263 265 264 258 249 244 243 244 245 248 251
284 284 284 283 282 281 280 278 277 275 272 269 266 262 260 259 257 255 250 248 247 246 246 249 247 242 240 241 240 237 237 241 245 245 241 238 236 235 235 235 235 238 241 239 234 232 234 237 241 242 241 244 248 244 244 255 260 260 259 249 240 255 262 251 240 239 241 247 247 240 240 241 239 239 244 250 256 260 263 262 256 250 248 248 249 251 254
284 285 284 283 281 279 278 277 276 274 271 269 266 262 260 258 256 253 249 247 248 249 249 249 246 239 236 238 237 234 233 235 239 241 240 238 236 236 234 231 231 235 239 237 232 231 232 233 234 237 243 249 246 236 238 247 246 247 252 249 243 253 259 255 249 249 252 258 260 255 251 247 241 237 236 242 252 258 259 259 259 259 256 254 253 256 257
285 285 284 282 280 279 278 277 275 273 271 268 266 262 259 257 254 251 248 247 247 248 248 247 242 237 238 241 237 230 228 230 233 238 240 239 237 236 233 229 227 230 233 234 233 232 231 232 233 235 240 244 244 238 236 242 246 246 250 254 256 261 264 261 256 255 257 257 254 254 256 254 249 244 242 242 246 253 258 260 260 260 261 260 258 259 261
285 285 284 282 280 279 278 276 275 273 269 266 264 262 259 256 253 250 247 246 248 252 251 245 242 244 249 248 238 230 227 228 230 235 238 237 237 239 237 232 227 228 231 235 236 234 232 230 231 232 232 234 240 241 232 230 238 239 235 243 254 258 262 262 258 255 257 257 254 255 257 259 258 253 251 249 246 247 254 261 263 262 262 262 260 261 262
285 284 282 280 279 278 277 276 275 274 271 266 263 261 259 255 252 249 246 245 250 256 254 246 243 247 248 242 236 233 232 232 233 236 237 235 237 239 237 231 226 226 231 235 235 234 232 230 231 230 226 225 234 237 229 228 236 237 227 236 254 262 265 265 263 259 256 256 261 265 262 258 258 258 258 259 256 251 251 256 262 267 268 268 268 268 268
283 282 280 278 277 276 274 274 274 273 272 268 263 261 259 256 252 248 245 247 253 257 254 249 249 251 248 240 234 231 232 234 235 236 235 234 235 236 235 230 223 222 226 229 231 232 231 230 232 230 223 222 231 234 230 233 243 249 247 247 256 268 275 271 262 256 255 255 260 265 263 261 264 267 268 269 269 267 263 261 262 267 271 274 274 275 275
282 280 278 277 276 274 273 273 273 272 272 269 266 262 259 257 254 249 246 250 255 256 252 250 251 253 250 240 228 224 227 230 232 232 233 234 235 235 234 229 221 219 224 227 229 230 229 229 231 228 220 223 231 234 233 236 243 251 253 251 256 265 268 265 259 256 256 256 258 261 263 264 267 273 276 278 277 277 277 275 272 271 272 275 277 278 279
281 279 277 276 275 275 276 275 274 272 271 270 268 264 260 255 251 248 247 249 253 256 256 253 251 250 244 230 219 219 223 225 226 229 231 234 236 236 233 228 221 219 223 226 227 229 229 230 232 227 222 226 233 235 238 241 244 250 256 258 259 258 258 259 256 252 252 252 252 255 260 263 265 270 276 279 279 280 282 281 280 278 278 278 280 281 281
279 278 278 277 277 277 278 278 276 273 270 268 267 266 263 257 253 252 251 250 251 256 260 258 253 248 238 224 216 216 217 219 224 228 229 233 237 236 231 225 220 219 221 224 226 229 230 231 231 227 223 228 233 236 240 245 248 253 261 264 260 258 259 261 257 251 249 250 249 250 256 261 262 265 270 273 274 276 279 282 283 284 282 280 281 282 282
277 278 278 278 278 280 281 282 281 277 271 266 264 263 261 258 255 255 255 253 252 255 258 259 256 248 235 223 217 214 214 218 223 226 228 233 235 231 226 223 220 219 221 222 225 228 229 230 230 225 222 228 232 235 239 246 251 255 261 266 264 262 262 263 260 255 253 252 251 251 254 259 262 264 267 272 275 278 282 284 285 286 285 283 281 280 279
276 277 278 279 280 282 283 283 282 278 273 268 265 263 261 257 254 254 254 254 254 254 253 254 253 243 230 220 214 212 214 218 222 224 227 231 231 227 224 222 220 220 220 220 222 224 226 229 229 225 222 227 232 236 240 246 252 257 260 264 264 262 260 259 259 257 256 256 256 257 258 262 266 269 272 276 281 286 288 287 287 287 287 287 286 282 279
276 277 279 281 283 284 283 281 279 277 276 275 273 270 267 263 259 257 257 258 258 256 251 248 243 233 223 215 210 209 211 215 217 220 224 228 228 226 222 219 219 221 221 221 222 223 225 228 230 227 225 227 232 238 242 246 252 258 262 262 260 258 258 258 258 259 259 258 258 260 262 266 271 276 280 284 287 289 289 289 289 288 288 288 288 287 284
277 278 279 282 285 284 280 277 275 275 276 276 276 273 271 268 266 262 260 260 260 256 249 241 233 224 217 212 207 206 209 214 216 219 223 224 224 223 220 216 217 220 221 222 223 224 226 228 229 229 228 228 231 237 242 246 251 257 262 263 261 259 258 258 258 258 259 259 260 263 266 269 273 279 283 286 287 288 288 288 289 289 289 289 288 288 287
277 278 279 282 283 281 277 275 274 274 274 273 273 273 273 271 269 265 261 259 258 255 247 236 224 216 213 210 206 203 207 212 215 218 221 222 220 220 219 218 219 219 220 222 223 223 225 228 229 230 231 230 230 235 242 247 253 257 260 260 260 258 255 253 252 255 257 259 261 264 266 270 275 279 282 284 285 285 285 286 287 288 289 289 289 288 287
277 277 278 279 279 278 278 278 277 275 275 274 274 275 274 270 267 263 258 254 252 249 242 228 215 209 208 207 203 202 204 208 211 215 219 219 217 216 219 223 224 222 220 222 223 223 225 228 230 232 233 233 234 238 244 250 255 258 259 259 257 254 251 249 250 254 257 258 260 263 266 271 276 279 282 284 285 285 284 284 285 286 287 288 288 287 287
276 275 275 276 276 277 278 279 279 279 278 278 277 275 272 268 261 254 251 249 245 240 231 218 209 207 206 203 199 200 204 207 209 214 218 217 214 215 219 223 225 224 223 223 224 224 225 228 230 232 234 236 239 242 246 250 255 258 259 258 256 252 250 251 253 256 257 259 261 264 269 274 278 280 283 284 285 285 285 286 286 286 285 286 286 286 286
276 275 275 274 275 277 278 280 282 282 282 282 279 272 266 260 250 240 239 241 238 231 221 209 204 206 206 201 197 198 202 206 210 215 216 215 213 213 214 217 221 223 224 224 225 226 228 229 230 232 235 238 241 244 247 249 253 257 258 257 256 255 254 255 258 259 260 262 264 269 274 277 279 282 284 285 285 286 287 287 287 286 285 285 284 284 284
276 276 275 275 276 278 281 283 284 283 282 281 278 268 257 248 236 225 224 229 229 222 211 203 202 204 204 201 200 200 203 208 213 216 216 216 214 213 213 215 218 221 223 224 225 227 229 229 228 230 235 238 239 243 247 249 251 254 256 257 258 259 259 260 261 262 262 264 267 271 274 277 280 283 286 286 287 288 289 289 288 286 285 284 283 283 282
277 276 275 275 276 279 281 281 280 277 274 273 273 266 248 231 219 213 213 218 219 212 206 203 202 201 201 202 201 201 205 212 216 217 216 217 215 214 214 217 220 221 223 226 226 227 230 231 228 227 232 237 239 242 247 248 248 251 254 257 259 260 261 262 262 262 263 266 269 272 276 279 282 284 286 288 289 290 291 290 290 288 287 285 284 282 282
278 275 274 275 276 277 277 273 269 268 265 263 266 256 226 205 197 198 204 211 212 206 202 201 200 199 200 202 202 202 207 213 216 216 216 218 218 217 218 220 222 221 223 226 228 228 230 233 229 224 228 235 240 244 248 250 251 252 254 257 258 259 260 261 261 263 266 269 273 277 280 283 284 285 287 289 290 291 292 292 292 291 290 288 286 285 284
275 273 273 274 273 270 266 258 255 255 253 249 244 218 193 186 185 188 194 199 201 199 197 198 198 197 199 203 207 207 207 211 215 216 216 216 218 218 219 220 221 221 223 226 229 229 229 231 230 228 230 235 241 244 246 248 251 254 256 258 259 260 262 263 264 267 270 274 278 282 284 286 287 288 289 290 291 292 293 294 294 293 291 290 288 287 285
272 272 273 272 267 259 248 239 236 232 226 219 209 193 187 186 187 188 189 189 189 189 191 192 193 194 197 205 210 210 207 210 214 215 213 213 216 218 218 217 218 221 224 227 229 230 230 230 230 232 235 238 240 242 244 247 251 255 259 261 264 265 266 267 270 273 276 280 283 287 288 289 290 290 290 290 291 293 294 295 294 293 291 290 289 288 286
270 268 266 261 252 241 230 223 217 208 198 192 186 184 186 186 182 184 189 188 184 183 185 188 191 195 200 206 211 210 207 209 211 211 210 211 214 215 215 215 217 221 224 226 227 230 231 230 230 233 238 241 243 244 246 249 253 257 261 264 267 268 269 272 275 279 283 286 289 290 292 292 292 292 291 292 293 294 294 294 293 292 291 290 289 288 287
259 252 244 233 219 212 212 211 202 191 185 184 180 179 182 182 179 181 187 187 183 183 185 187 192 198 202 206 209 209 207 206 207 206 207 209 212 213 214 215 218 222 224 225 226 229 230 230 232 236 239 242 246 250 254 256 258 262 266 269 272 275 277 280 283 287 291 293 294 294 294 294 293 292 292 292 293 293 293 293 292 291 291 290 289 289 288
229 219 212 205 200 200 204 201 189 181 179 183 181 178 178 179 179 182 184 183 183 186 188 189 194 201 203 204 206 206 203 202 203 204 205 207 210 213 216 218 221 224 225 224 226 230 231 232 235 239 241 244 248 253 257 260 263 266 269 273 277 281 284 287 291 294 296 296 296 295 295 294 292 292 292 292 292 293 292 292 292 292 292 291 291 291 290
210 205 201 195 190 188 182 175 174 178 182 183 181 179 179 179 180 181 180 180 184 190 191 190 194 200 201 202 204 203 199 199 202 204 205 208 212 215 217 219 223 226 227 226 227 229 230 230 233 238 242 246 251 256 261 265 268 272 275 278 282 285 289 292 295 297 297 296 296 296 295 293 292 292 292 292 292 293 293 293 294 294 293 293 293 293 293
207 204 199 189 179 175 172 170 173 178 181 180 179 179 180 180 179 181 181 181 186 192 195 195 198 199 197 198 202 200 197 197 200 202 204 209 214 217 220 223 226 228 229 230 232 234 234 234 236 239 244 250 257 264 270 273 275 277 279 281 283 285 287 290 294 296 297 297 298 297 295 294 293 292 292 292 293 294 295 296 296 295 295 294 294 295 296
205 202 196 186 178 176 176 176 175 176 179 181 182 182 181 180 181 186 187 185 186 194 200 202 200 196 195 200 206 203 199 199 200 200 203 210 215 218 223 229 233 233 233 233 236 239 239 239 241 244 249 256 263 268 272 275 276 278 280 282 284 285 287 289 292 295 297 299 299 297 296 295 294 293 293 294 296 297 297 298 297 297 296 297 297 298 299
203 201 195 187 182 180 180 179 177 177 180 184 187 186 182 179 182 191 195 193 192 198 203 203 198 195 198 206 209 203 199 201 202 202 206 212 216 219 225 231 234 234 232 232 235 239 241 241 243 246 251 257 262 267 271 275 278 281 284 287 287 288 289 291 293 296 299 300 300 298 297 296 295 295 296 297 299 299 299 299 299 298 298 299 300 300 301
Height
5850 5849 5848 5847 5845 5844 5842 5841 5839 5837 5836 5835 5833 5831 5829 5827 5826 5826 5826 5824 5823 5823 5822 5821 5821 5820 5819 5819 5821 5820 5819 5819 5819 5818 5818 5818 5818 5818 5817 5816 5816 5815 5814 5814 5814 5813 5813 5812 5812 5812 5812 5811 5811 5811 5811 5811 5811 5812 5812 5813 5815 5816 5818 5821 5823 5825 5827 5827 5829 5833 5837 5840 5843 5846 5849 5851 5854 5856 5860 5863 5864 5865 5867 5868 5867 5866 5867
5848 5847 5845 5844 5843 5842 5840 5839 5837 5836 5834 5833 5831 5829 5828 5826 5824 5824 5823 5822 5821 5821 5820 5820 5819 5818 5818 5820 5821 5820 5819 5818 5817 5817 5817 5817 5817 5817 5816 5816 5815 5815 5814 5813 5813 5813 5813 5811 5811 5811 5811 5810 5809 5810 5810 5809 5810 5811 5811 5812 5814 5815 5817 5820 5822 5824 5826 5827 5829 5832 5835 5838 5841 5845 5848 5851 5853 5854 5856 5859 5860 5862 5863 5864 5863 5864 5864
5845 5844 5843 5841 5840 5839 5838 5837 5835 5834 5832 5831 5829 5827 5826 5824 5823 5822 5821 5820 5819 5819 5818 5818 5818 5817 5817 5818 5819 5819 5818 5815 5815 5816 5815 5815 5816 5816 5815 5814 5814 5814 5813 5812 5811 5811 5811 5810 5809 5809 5809 5808 5808 5808 5809 5808 5808 5810 5810 5810 5812 5814 5815 5818 5820 5822 5824 5826 5829 5830 5833 5836 5838 5840 5842 5845 5847 5847 5848 5852 5855 5858 5860 5860 5860 5861 5862
5842 5841 5840 5839 5837 5836 5835 5834 5833 5832 5830 5828 5827 5826 5824 5823 5821 5819 5818 5818 5818 5817 5816 5817 5817 5815 5815 5816 5816 5816 5815 5813 5813 5814 5813 5813 5814 5814 5814 5814 5813 5812 5812 5811 5810 5810 5810 5808 5808 5808 5808 5807 5807 5807 5809 5807 5807 5809 5809 5809 5811 5812 5813 5816 5818 5820 5822 5824 5825 5827 5830 5833 5833 5833 5834 5836 5838 5840 5843 5846 5848 5850 5853 5855 5857 5859 5861
5838 5838 5837 5836 5834 5833 5833 5832 5831 5829 5828 5826 5825 5824 5823 5822 5819 5817 5816 5816 5815 5815 5815 5815 5815 5814 5815 5816 5815 5814 5814 5813 5813 5812 5811 5811 5812 5813 5812 5812 5812 5811 5810 5809 5809 5808 5808 5807 5806 5806 5806 5806 5806 5806 5806 5806 5807 5809 5808 5807 5808 5809 5810 5813 5815 5817 5819 5820 5822 5824 5828 5828 5826 5827 5831 5834 5836 5840 5844 5845 5845 5847 5850 5852 5854 5857 5859
5835 5834 5833 5832 5831 5830 5829 5829 5828 5827 5825 5824 5823 5822 5821 5820 5818 5816 5816 5814 5813 5814 5813 5813 5814 5814 5814 5815 5814 5814 5814 5814 5814 5812 5810 5810 5810 5810 5810 5810 5811 5810 5808 5808 5808 5806 5806 5806 5805 5804 5803 5803 5803 5803 5804 5804 5805 5806 5806 5806 5806 5806 5808 5810 5811 5814 5816 5818 5819 5822 5823 5823 5822 5825 5829 5830 5832 5837 5841 5842 5843 5846 5847 5848 5852 5854 5856
5831 5830 5829 5829 5828 5827 5826 5825 5825 5824 5823 5822 5821 5820 5819 5818 5816 5815 5815 5813 5812 5812 5811 5811 5812 5813 5813 5813 5812 5811 5812 5813 5813 5811 5809 5808 5807 5808 5808 5808 5809 5808 5806 5807 5806 5804 5804 5805 5803 5802 5800 5799 5800 5801 5802 5803 5803 5804 5804 5804 5804 5805 5806 5806 5808 5811 5814 5815 5816 5817 5818 5819 5820 5822 5824 5825 5829 5833 5837 5838 5840 5843 5845 5846 5849 5851 5852
5827 5826 5825 5825 5824 5823 5822 5822 5821 5820 5819 5819 5818 5817 5817 5816 5815 5813 5813 5812 5811 5811 5810 5809 5810 5811 5811 5811 5810 5808 5808 5810 5810 5808 5808 5807 5805 5806 5806 5806 5806 5806 5805 5805 5805 5802 5802 5802 5801 5799 5798 5798 5798 5799 5800 5801 5801 5801 5802 5802 5803 5804 5805 5804 5806 5809 5811 5813 5814 5815 5816 5817 5818 5819 5821 5823 5827 5831 5834 5835 5838 5841 5843 5846 5846 5845 5846
5823 5822 5821 5821 5820 5819 5818 5818 5817 5817 5816 5815 5815 5815 5814 5813 5812 5811 5810 5810 5809 5810 5809 5808 5808 5808 5808 5809 5808 5806 5806 5806 5806 5805 5804 5804 5804 5804 5804 5805 5805 5804 5803 5803 5803 5801 5801 5801 5799 5798 5798 5797 5797 5798 5799 5799 5799 5799 5800 5800 5801 5802 5803 5802 5804 5806 5808 5809 5811 5812 5814 5816 5817 5819 5821 5823 5826 5829 5831 5833 5835 5838 5841 5844 5844 5841 5842
5818 5818 5817 5817 5816 5815 5814 5814 5813 5813 5812 5811 5811 5812 5811 5809 5809 5808 5808 5808 5808 5808 5807 5806 5806 5806 5806 5806 5806 5805 5804 5803 5803 5802 5801 5801 5801 5801 5802 5803 5803 5802 5802 5802 5801 5801 5800 5799 5799 5798 5798 5797 5797 5798 5798 5798 5798 5798 5799 5799 5799 5800 5800 5801 5802 5803 5805 5806 5807 5809 5813 5816 5817 5819 5821 5823 5825 5827 5829 5830 5833 5836 5838 5840 5841 5840 5841
5814 5813 5813 5812 5812 5811 5810 5809 5809 5808 5808 5807 5807 5808 5807 5806 5806 5805 5805 5805 5805 5805 5804 5804 5804 5804 5803 5804 5805 5804 5803 5801 5800 5800 5799 5798 5798 5799 5800 5801 5801 5800 5801 5800 5800 5799 5799 5798 5798 5797 5797 5797 5797 5797 5797 5797 5797 5797 5797 5797 5797 5797 5798 5799 5800 5802 5803 5805 5806 5808 5811 5813 5815 5818 5821 5823 5825 5826 5826 5828 5831 5833 5833 5835 5837 5839 5839
5810 5809 5808 5807 5807 5807 5806 5805 5805 5804 5804 5803 5803 5803 5803 5802 5802 5802 5802 5802 5802 5802 5801 5801 5802 5802 5800 5801 5802 5802 5802 5801 5797 5796 5797 5796 5796 5797 5798 5798 5799 5799 5799 5799 5798 5798 5797 5797 5797 5796 5796 5796 5796 5796 5796 5796 5796 5796 5796 5796 5795 5796 5797 5797 5799 5801 5802 5804 5805 5806 5808 5810 5813 5816 5819 5821 5823 5823 5824 5826 5828 5830 5830 5831 5834 5836 5835
5805 5804 5803 5803 5802 5802 5802 5801 5801 5800 5799 5799 5799 5798 5799 5798 5798 5798 5798 5799 5798 5798 5798 5798 5799 5799 5797 5796 5798 5799 5800 5799 5795 5793 5794 5794 5794 5795 5796 5796 5797 5797 5797 5797 5797 5796 5796 5796 5796 5795 5796 5795 5795 5795 5795 5795 5795 5795 5795 5795 5794 5795 5795 5796 5797 5799 5801 5802 5803 5804 5806 5808 5811 5814 5816 5818 5820 5821 5822 5823 5826 5827 5827 5828 5831 5833 5833
5800 5799 5798 5798 5797 5797 5797 5797 5797 5796 5795 5795 5794 5794 5794 5794 5794 5794 5794 5795 5795 5794 5795 5795 5796 5795 5794 5794 5794 5795 5797 5795 5792 5791 5792 5792 5792 5793 5793 5794 5795 5795 5795 5795 5795 5795 5795 5795 5794 5794 5794 5794 5794 5794 5794 5793 5793 5793 5793 5793 5793 5793 5794 5794 5796 5797 5799 5800 5801 5802 5804 5806 5808 5811 5813 5814 5816 5818 5820 5821 5823 5825 5825 5825 5827 5829 5829
5795 5794 5793 5793 5792 5792 5792 5792 5792 5791 5791 5790 5790 5790 5790 5790 5790 5790 5790 5791 5791 5791 5792 5792 5791 5791 5792 5792 5792 5792 5793 5792 5789 5789 5790 5790 5790 5790 5791 5792 5793 5793 5793 5794 5794 5793 5794 5794 5793 5793 5793 5793 5792 5793 5793 5792 5792 5791 5792 5792 5792 5792 5792 5793 5794 5796 5797 5799 5800 5801 5802 5804 5805 5807 5809 5810 5813 5815 5817 5819 5821 5823 5823 5824 5823 5823 5823
5790 5789 5789 5788 5787 5786 5786 5786 5786 5786 5786 5785 5785 5785 5785 5785 5785 5785 5786 5787 5787 5788 5788 5788 5787 5788 5789 5789 5788 5788 5789 5788 5786 5786 5786 5787 5788 5788 5789 5790 5790 5790 5791 5792 5792 5792 5792 5793 5793 5792 5792 5791 5791 5792 5792 5791 5791 5791 5791 5791 5791 5791 5791 5792 5793 5794 5796 5797 5798 5799 5800 5801 5802 5804 5806 5807 5809 5811 5814 5816 5818 5820 5821 5821 5820 5820 5821
5784 5784 5783 5783 5782 5781 5781 5781 5781 5781 5781 5780 5780 5780 5780 5780 5780 5781 5781 5782 5783 5784 5784 5783 5784 5784 5784 5784 5784 5784 5784 5784 5783 5783 5784 5785 5786 5786 5787 5788 5788 5789 5789 5790 5790 5790 5791 5791 5791 5791 5791 5791 5790 5791 5791 5791 5790 5790 5790 5790 5790 5790 5790 5791 5791 5793 5794 5795 5796 5797 5798 5800 5801 5802 5803 5805 5806 5808 5811 5813 5814 5816 5817 5817 5817 5818 5820
5779 5779 5778 5777 5776 5775 5775 5775 5775 5775 5775 5775 5775 5774 5775 5775 5775 5776 5777 5778 5780 5780 5778 5778 5781 5780 5779 5780 5781 5781 5781 5781 5781 5781 5781 5782 5783 5784 5785 5785 5786 5786 5787 5788 5788 5789 5789 5789 5790 5790 5790 5790 5790 5790 5790 5790 5790 5789 5789 5789 5789 5789 5790 5790 5790 5791 5791 5793 5795 5797 5798 5799 5800 5801 5802 5803 5804 5806 5808 5810 5811 5813 5814 5815 5816 5817 5819
5773 5773 5772 5772 5771 5769 5769 5769 5769 5769 5769 5769 5769 5769 5769 5770 5770 5771 5772 5774 5776 5775 5773 5775 5777 5775 5775 5777 5778 5778 5778 5778 5779 5779 5778 5779 5781 5782 5782 5783 5783 5784 5785 5786 5786 5787 5787 5788 5788 5788 5789 5789 5789 5789 5789 5789 5788 5788 5788 5788 5787 5788 5789 5789 5789 5789 5790 5792 5794 5796 5796 5797 5799 5800 5801 5802 5803 5804 5806 5808 5809 5811 5812 5813 5814 5816 5818
5767 5767 5766 5766 5765 5764 5763 5762 5763 5763 5763 5764 5764 5763 5764 5764 5765 5766 5768 5770 5772 5771 5769 5770 5772 5771 5773 5775 5775 5775 5775 5776 5776 5776 5776 5776 5778 5779 5780 5781 5782 5782 5782 5783 5783 5784 5786 5786 5787 5787 5787 5788 5788 5788 5788 5788 5787 5787 5787 5787 5787 5788 5788 5789 5789 5789 5790 5792 5793 5794 5795 5796 5797 5799 5800 5800 5801 5802 5803 5805 5807 5808 5810 5810 5812 5814 5816
5761 5761 5760 5759 5759 5758 5757 5756 5757 5757 5757 5758 5758 5758 5759 5759 5760 5762 5764 5765 5767 5766 5764 5765 5768 5769 5770 5771 5771 5772 5773 5773 5773 5774 5774 5775 5777 5777 5778 5779 5779 5779 5780 5781 5782 5783 5784 5785 5785 5786 5786 5787 5787 5787 5787 5787 5787 5786 5787 5787 5787 5787 5788 5788 5789 5788 5789 5790 5792 5793 5794 5795 5796 5798 5798 5799 5799 5800 5802 5803 5805 5807 5808 5809 5810 5811 5813
5756 5755 5754 5753 5753 5752 5752 5751 5751 5751 5752 5752 5753 5753 5753 5753 5754 5757 5758 5760 5762 5763 5760 5760 5764 5766 5766 5766 5767 5769 5770 5770 5771 5772 5773 5774 5775 5776 5776 5777 5777 5778 5779 5779 5780 5782 5783 5783 5783 5785 5786 5786 5786 5786 5786 5786 5786 5786 5786 5786 5787 5787 5787 5788 5788 5787 5788 5789 5790 5791 5792 5793 5795 5797 5797 5797 5798 5798 5800 5801 5803 5805 5806 5807 5808 5809 5810
5750 5749 5749 5748 5747 5747 5746 5746 5746 5746 5746 5747 5747 5748 5748 5748 5749 5752 5753 5755 5757 5758 5756 5757 5761 5763 5762 5763 5764 5765 5767 5767 5767 5768 5769 5771 5772 5773 5773 5774 5775 5776 5777 5777 5779 5780 5781 5781 5782 5784 5785 5785 5785 5785 5785 5785 5786 5786 5785 5785 5785 5785 5786 5787 5787 5787 5787 5788 5788 5789 5790 5792 5794 5796 5796 5796 5796 5797 5798 5799 5801 5803 5804 5805 5806 5807 5808
5745 5744 5743 5743 5742 5742 5741 5741 5741 5741 5741 5741 5742 5743 5743 5743 5745 5747 5748 5749 5751 5753 5753 5754 5757 5759 5759 5759 5760 5762 5763 5764 5764 5765 5766 5768 5769 5770 5770 5772 5773 5775 5775 5776 5777 5778 5779 5779 5780 5782 5782 5783 5784 5784 5784 5784 5785 5785 5784 5785 5784 5784 5785 5787 5787 5787 5787 5787 5787 5788 5789 5790 5792 5794 5795 5795 5795 5796 5797 5797 5798 5800 5802 5803 5804 5805 5806
5740 5739 5739 5738 5737 5737 5736 5736 5736 5736 5737 5737 5737 5737 5738 5738 5740 5741 5742 5744 5747 5749 5749 5750 5753 5755 5755 5754 5756 5758 5760 5761 5761 5762 5763 5765 5767 5767 5767 5769 5771 5773 5774 5775 5775 5776 5776 5777 5779 5780 5780 5781 5782 5782 5783 5783 5783 5783 5783 5784 5783 5784 5785 5786 5787 5787 5787 5786 5786 5786 5787 5788 5790 5792 5793 5794 5794 5795 5796 5796 5797 5798 5799 5801 5802 5803 5803
5735 5735 5734 5733 5733 5732 5732 5732 5732 5732 5732 5732 5732 5733 5733 5733 5734 5736 5737 5739 5742 5744 5744 5746 5748 5749 5748 5749 5751 5753 5754 5756 5757 5757 5760 5762 5763 5763 5764 5767 5769 5770 5771 5772 5773 5774 5775 5776 5777 5778 5779 5780 5780 5780 5781 5782 5782 5781 5782 5782 5782 5783 5785 5785 5786 5786 5786 5786 5786 5786 5787 5787 5789 5790 5792 5793 5794 5794 5795 5795 5796 5796 5797 5798 5799 5800 5801
5731 5730 5729 5729 5728 5728 5727 5727 5727 5727 5728 5728 5728 5728 5728 5729 5730 5731 5733 5735 5737 5738 5740 5741 5742 5742 5744 5746 5747 5748 5750 5752 5753 5754 5756 5759 5758 5759 5761 5765 5766 5767 5769 5770 5771 5772 5773 5774 5775 5776 5777 5778 5778 5778 5780 5781 5780 5780 5781 5782 5782 5783 5783 5784 5784 5785 5786 5786 5786 5786 5786 5787 5788 5789 5790 5791 5793 5794 5794 5794 5794 5795 5796 5797 5797 5798 5799
5726 5726 5725 5724 5724 5724 5723 5723 5723 5723 5723 5723 5723 5724 5724 5724 5726 5727 5729 5731 5732 5734 5735 5737 5737 5739 5741 5743 5743 5745 5748 5749 5750 5751 5753 5754 5755 5756 5759 5761 5763 5765 5766 5768 5769 5770 5771 5772 5772 5773 5775 5776 5776 5777 5778 5779 5778 5779 5781 5782 5781 5781 5782 5783 5783 5784 5784 5785 5785 5785 5786 5786 5786 5787 5789 5790 5791 5792 5793 5793 5794 5794 5794 5795 5796 5797 5797
5722 5721 5721 5720 5720 5720 5719 5719 5719 5719 5719 5719 5719 5719 5719 5720 5722 5724 5725 5727 5728 5729 5731 5732 5733 5735 5737 5738 5739 5742 5744 5745 5747 5748 5749 5750 5751 5753 5755 5757 5760 5762 5763 5765 5766 5768 5769 5770 5770 5771 5774 5774 5774 5775 5776 5776 5776 5778 5780 5780 5780 5780 5781 5781 5782 5783 5783 5783 5783 5783 5784 5785 5785 5786 5787 5788 5789 5790 5791 5792 5793 5793 5793 5794 5794 5795 5795
5718 5717 5717 5716 5716 5716 5715 5715 5715 5715 5715 5715 5715 5715 5715 5717 5719 5720 5721 5722 5723 5725 5727 5728 5729 5731 5732 5735 5738 5740 5740 5742 5744 5745 5746 5747 5748 5750 5751 5754 5757 5759 5760 5762 5764 5766 5767 5768 5768 5769 5771 5772 5772 5773 5774 5774 5775 5777 5778 5778 5779 5779 5779 5780 5780 5781 5781 5782 5782 5782 5782 5784 5785 5785 5785 5787 5787 5788 5789 5790 5791 5792 5792 5792 5793 5793 5793
5713 5713 5713 5712 5712 5712 5712 5711 5711 5711 5711 5711 5711 5711 5712 5713 5715 5715 5716 5718 5719 5721 5722 5723 5725 5727 5729 5731 5734 5735 5736 5739 5741 5742 5743 5745 5746 5747 5749 5751 5754 5756 5757 5759 5761 5763 5764 5765 5766 5768 5769 5769 5770 5771 5772 5772 5774 5776 5777 5777 5778 5778 5777 5778 5779 5780 5780 5780 5781 5781 5782 5783 5784 5784 5784 5785 5786 5786 5786 5787 5788 5789 5790 5791 5791 5791 5791
5709 5709 5709 5708 5708 5708 5707 5707 5707 5707 5707 5707 5707 5708 5708 5709 5710 5711 5713 5714 5716 5717 5718 5719 5721 5723 5725 5727 5729 5731 5734 5736 5738 5739 5741 5742 5743 5745 5747 5748 5750 5752 5754 5756 5759 5761 5762 5763 5764 5766 5767 5767 5768 5769 5770 5771 5773 5774 5775 5776 5777 5776 5776 5777 5778 5778 5778 5779 5779 5780 5781 5782 5782 5783 5783 5783 5784 5784 5785 5784 5785 5786 5787 5788 5788 5788 5787
5705 5705 5705 5704 5704 5704 5703 5703 5703 5703 5703 5703 5704 5704 5705 5706 5707 5708 5709 5710 5711 5712 5714 5715 5717 5719 5720 5723 5725 5728 5731 5733 5734 5736 5738 5739 5740 5742 5744 5745 5747 5749 5751 5754 5756 5758 5759 5760 5761 5763 5765 5765 5766 5767 5768 5769 5771 5773 5773 5774 5774 5774 5775 5775 5776 5776 5777 5777 5778 5779 5780 5780 5780 5781 5782 5782 5782 5782 5783 5783 5782 5782 5783 5784 5785 5785 5784
5701 5701 5701 5701 5700 5700 5699 5699 5699 5699 5699 5699 5700 5701 5701 5702 5703 5704 5706 5706 5707 5708 5710 5712 5713 5714 5717 5720 5723 5726 5728 5730 5732 5734 5735 5736 5738 5739 5741 5742 5744 5746 5748 5750 5752 5754 5756 5757 5759 5761 5762 5763 5764 5765 5767 5768 5770 5770 5771 5772 5772 5772 5773 5773 5774 5775 5775 5775 5776 5777 5777 5777 5778 5779 5780 5780 5780 5780 5780 5780 5780 5779 5779 5780 5781 5781 5781
5697 5697 5697 5696 5696 5696 5695 5695 5695 5695 5695 5696 5696 5697 5698 5698 5699 5700 5701 5702 5703 5704 5705 5707 5708 5710 5713 5717 5720 5723 5725 5727 5729 5731 5732 5734 5735 5736 5737 5739 5741 5743 5745 5747 5749 5752 5754 5755 5757 5758 5760 5761 5762 5764 5765 5767 5767 5768 5769 5770 5770 5770 5770 5771 5772 5772 5773 5773 5774 5774 5775 5775 5775 5776 5776 5777 5777 5777 5777 5776 5776 5776 5776 5776 5776 5776 5776
5693 5693 5693 5692 5692 5692 5691 5691 5691 5692 5693 5693 5693 5693 5694 5694 5695 5696 5697 5698 5699 5700 5701 5702 5704 5707 5710 5713 5717 5720 5722 5724 5726 5728 5730 5731 5733 5734 5735 5737 5739 5741 5743 5745 5747 5749 5751 5752 5754 5756 5757 5759 5760 5762 5763 5764 5765 5766 5766 5767 5767 5767 5768 5769 5769 5770 5770 5771 5772 5772 5772 5773 5773 5773 5773 5774 5774 5774 5774 5773 5773 5773 5772 5772 5772 5772 5771
5689 5689 5689 5689 5689 5689 5688 5688 5689 5689 5690 5690 5689 5690 5690 5690 5691 5691 5692 5693 5694 5696 5697 5698 5701 5704 5707 5710 5714 5717 5719 5721 5724 5726 5727 5728 5730 5731 5733 5735 5737 5739 5741 5742 5744 5746 5748 5750 5752 5753 5754 5756 5758 5760 5760 5762 5763 5763 5764 5764 5765 5765 5766 5766 5767 5767 5768 5769 5769 5769 5770 5770 5771 5770 5770 5771 5771 5771 5770 5770 5770 5769 5769 5768 5768 5768 5767
5685 5685 5685 5685 5685 5685 5685 5685 5686 5686 5686 5686 5686 5686 5686 5686 5686 5687 5688 5688 5690 5691 5693 5695 5698 5701 5704 5708 5712 5715 5717 5719 5721 5723 5724 5725 5727 5729 5731 5732 5734 5736 5738 5740 5741 5743 5745 5747 5749 5750 5751 5753 5756 5757 5758 5759 5760 5761 5761 5762 5762 5763 5764 5764 5765 5765 5766 5767 5767 5767 5767 5768 5768 5768 5767 5767 5767 5767 5767 5767 5766 5766 5765 5765 5764 5763 5763
5681 5681 5682 5682 5682 5682 5682 5682 5682 5682 5682 5682 5681 5681 5681 5681 5682 5682 5683 5684 5686 5687 5689 5692 5695 5698 5702 5706 5709 5712 5714 5716 5718 5720 5721 5723 5725 5727 5729 5731 5732 5734 5736 5737 5739 5741 5743 5744 5746 5748 5749 5751 5753 5754 5756 5757 5758 5758 5759 5759 5760 5761 5761 5762 5762 5763 5764 5764 5764 5764 5764 5765 5764 5764 5764 5764 5764 5763 5763 5763 5763 5762 5761 5761 5760 5759 5758
5677 5678 5678 5678 5678 5678 5678 5678 5678 5678 5677 5677 5677 5676 5676 5676 5678 5679 5680 5681 5683 5685 5688 5691 5694 5697 5700 5704 5707 5709 5712 5714 5716 5717 5719 5721 5723 5725 5726 5728 5730 5731 5733 5735 5737 5738 5740 5741 5743 5746 5748 5749 5750 5751 5753 5754 5755 5755 5756 5757 5757 5758 5759 5759 5760 5760 5761 5761 5761 5761 5761 5761 5761 5761 5761 5761 5760 5759 5759 5759 5758 5758 5757 5756 5756 5755 5754
5674 5674 5674 5674 5674 5674 5675 5674 5674 5673 5673 5673 5672 5672 5673 5673 5675 5677 5678 5680 5682 5684 5687 5689 5692 5695 5699 5702 5705 5708 5710 5712 5714 5716 5718 5720 5721 5723 5724 5726 5727 5729 5731 5733 5734 5736 5737 5739 5741 5744 5746 5747 5748 5749 5750 5751 5752 5753 5753 5754 5755 5755 5756 5756 5757 5757 5758 5758 5758 5758 5758 5758 5757 5757 5757 5756 5756 5755 5755 5755 5754 5753 5752 5752 5751 5750 5749
5670 5670 5670 5670 5670 5670 5670 5670 5670 5669 5669 5669 5669 5670 5670 5672 5673 5675 5677 5679 5681 5683 5686 5688 5691 5695 5698 5701 5703 5706 5708 5710 5711 5713 5716 5718 5719 5720 5722 5724 5726 5728 5729 5730 5732 5733 5735 5737 5740 5742 5743 5744 5745 5747 5747 5748 5749 5750 5751 5751 5751 5752 5753 5753 5754 5754 5755 5755 5755 5755 5754 5754 5754 5753 5752 5752 5751 5751 5751 5750 5749 5748 5748 5747 5746 5745 5744
5667 5667 5667 5667 5667 5667 5667 5667 5667 5667 5667 5668 5668 5668 5669 5670 5672 5675 5677 5679 5681 5683 5685 5688 5691 5694 5696 5699 5701 5704 5706 5707 5709 5711 5714 5715 5716 5718 5720 5722 5724 5726 5727 5728 5729 5731 5733 5735 5738 5740 5741 5742 5743 5744 5745 5746 5747 5748 5748 5749 5749 5750 5750 5750 5751 5751 5751 5751 5751 5751 5751 5750 5750 5749 5748 5748 5747 5746 5746 5745 5744 5743 5742 5741 5740 5739 5738
5664 5664 5664 5664 5664 5664 5664 5665 5665 5665 5666 5667 5667 5668 5669 5671 5673 5675 5677 5679 5681 5683 5685 5688 5690 5693 5696 5698 5700 5702 5704 5706 5708 5710 5712 5713 5715 5716 5718 5720 5722 5723 5725 5726 5728 5729 5731 5733 5735 5738 5739 5740 5741 5742 5743 5744 5745 5745 5746 5746 5747 5747 5747 5747 5747 5748 5748 5747 5747 5747 5746 5746 5745 5745 5744 5743 5742 5741 5740 5739 5739 5737 5736 5735 5734 5733 5731
5661 5661 5661 5661 5662 5662 5663 5663 5664 5664 5665 5665 5666 5668 5670 5672 5674 5675 5677 5679 5681 5683 5685 5687 5690 5692 5694 5696 5698 5700 5703 5705 5706 5708 5710 5712 5713 5715 5716 5718 5719 5721 5723 5725 5726 5728 5729 5731 5734 5735 5736 5737 5738 5740 5741 5742 5742 5743 5743 5743 5743 5744 5744 5744 5744 5744 5744 5744 5743 5743 5742 5742 5741 5740 5739 5738 5737 5736 5735 5734 5733 5732 5730 5729 5728 5726 5725
5659 5659 5659 5660 5660 5661 5662 5663 5663 5663 5664 5664 5666 5667 5669 5671 5673 5675 5677 5679 5681 5683 5685 5687 5689 5691 5693 5694 5696 5699 5701 5703 5705 5707 5709 5710 5712 5714 5715 5716 5718 5719 5721 5723 5725 5726 5728 5730 5731 5733 5734 5735 5736 5737 5738 5739 5740 5740 5740 5740 5740 5740 5741 5741 5740 5740 5740 5740 5739 5739 5738 5737 5736 5736 5735 5733 5732 5731 5730 5729 5727 5726 5725 5723 5722 5720 5719
5657 5658 5658 5659 5660 5660 5661 5661 5662 5663 5664 5665 5666 5668 5669 5671 5673 5675 5677 5679 5681 5682 5685 5687 5688 5690 5692 5693 5695 5697 5699 5701 5703 5705 5707 5709 5711 5712 5713 5715 5717 5719 5720 5722 5723 5724 5726 5728 5730 5731 5732 5733 5734 5735 5736 5736 5736 5736 5737 5737 5737 5737 5737 5737 5737 5737 5736 5735 5735 5734 5733 5733 5732 5731 5730 5728 5727 5726 5725 5724 5722 5720 5719 5718 5716 5715 5713
5656 5657 5657 5658 5659 5659 5660 5661 5662 5663 5664 5666 5667 5668 5670 5671 5673 5675 5677 5678 5680 5682 5684 5686 5687 5689 5691 5692 5694 5695 5697 5699 5701 5703 5705 5707 5709 5711 5712 5714 5716 5717 5719 5720 5721 5722 5724 5726 5728 5729 5730 5731 5731 5732 5733 5733 5733 5733 5733 5734 5734 5733 5733 5733 5733 5733 5732 5731 5731 5730 5729 5728 5727 5726 5725 5724 5723 5722 5720 5718 5717 5715 5714 5712 5710 5709 5707
5655 5656 5657 5657 5658 5659 5660 5661 5662 5663 5664 5666 5667 5669 5670 5672 5673 5675 5677 5679 5680 5682 5683 5685 5687 5688 5690 5691 5693 5694 5696 5698 5700 5702 5704 5706 5708 5709 5711 5713 5714 5715 5717 5718 5719 5721 5723 5724 5725 5726 5728 5729 5729 5730 5730 5730 5730 5730 5730 5730 5730 5730 5730 5730 5730 5729 5728 5727 5727 5726 5725 5724 5722 5721 5720 5719 5718 5716 5715 5713 5711 5710 5708 5706 5705 5703 5701
5655 5655 5656 5657 5658 5659 5660 5661 5662 5663 5664 5666 5667 5668 5670 5672 5674 5675 5677 5679 5680 5681 5683 5684 5685 5687 5689 5690 5692 5693 5695 5697 5699 5701 5703 5705 5706 5708 5710 5711 5712 5714 5715 5717 5719 5720 5721 5722 5723 5724 5725 5726 5726 5726 5726 5726 5727 5727 5727 5727 5727 5727 5727 5726 5726 5725 5724 5723 5722 5721 5720 5719 5718 5717 5715 5714 5712 5711 5709 5708 5706 5704 5703 5701 5699 5697 5695
5653 5654 5655 5656 5657 5658 5658 5660 5661 5663 5664 5665 5666 5668 5670 5672 5674 5675 5676 5677 5679 5681 5683 5684 5685 5686 5688 5690 5691 5693 5695 5696 5698 5700 5702 5704 5706 5707 5709 5710 5711 5712 5714 5716 5717 5718 5719 5720 5721 5721 5722 5722 5723 5723 5723 5724 5724 5725 5725 5725 5724 5724 5723 5723 5722 5721 5720 5719 5718 5717 5716 5714 5713 5712 5710 5709 5707 5706 5704 5702 5701 5699 5697 5695 5693 5691 5689
5652 5653 5654 5655 5656 5657 5658 5659 5661 5662 5664 5665 5667 5668 5670 5671 5673 5674 5676 5676 5678 5680 5682 5684 5685 5686 5688 5690 5692 5693 5695 5696 5698 5699 5701 5703 5705 5707 5708 5708 5708 5710 5712 5714 5715 5716 5717 5718 5718 5718 5719 5720 5720 5721 5721 5721 5722 5722 5722 5722 5721 5720 5720 5719 5718 5717 5716 5715 5714 5713 5711 5710 5708 5707 5705 5704 5702 5700 5699 5697 5695 5694 5691 5689 5687 5685 5683